Voltar ao catálogo

SL-8 R/B

AtivoPO
NORAD 35637·ROCKET BODY·🇷🇺 Russia

Lançado Jul 21, 2009 de Plesetsk Cosmodrome

Loading…

Próximas Passagens (próximas 24 horas)

TLE

AtualizadoSource: Space-Track

Época: Sep 14, 2026, 14:37 UTC

1 35637U 09039C   26257.60931801  .00000077  00000-0  48592-4 0  9991
2 35637  82.9550 305.5385 0014554 296.6645 216.9915 13.91745854668933

Acompanhe SL-8 R/B em tempo real com AllMySat

Download on the App Store